Weather History for Du Bois, PA

Change the Weather History Date:

Thursday, January 17, 2013

  Actual Average Record
Temperature  
Mean Temperature 27 °F 23 °F  
Max Temperature 30 °F 31 °F 58 °F (1990)
Min Temperature 24 °F 16 °F -21 °F (1982)
Degree Days  
Heating Degree Days 38 42  
Month to date heating degree days 588 704  
Since 1 July heating degree days 3046 3366  
Cooling Degree Days 0 0  
Month to date cooling degree days 0 0  
Year to date cooling degree days 0 0  
Moisture  
Dew Point 24 °F    
Average Humidity 81    
Maximum Humidity 92    
Minimum Humidity 69    
Precipitation  
Precipitation T in 0.11 in 1.51 in (1978)
Month to date precipitation 0.78 1.77  
Sea Level Pressure  
Sea Level Pressure 30.05 in    
Wind  
Wind Speed 10 mph (West)    
Max Wind Speed 20 mph    
Max Gust Speed 26 mph    
Visibility 6 miles    
Events Fog , Snow    
T = Trace of Precipitation, MM = Missing Value Source: NWS Daily Summary

Daily Weather History Graph

Daily Weather History Graph

Search for Another Location

Airport:

Trip Planner

Search our weather history database for the weather conditions in past years. The results will help you decide how hot, cold, wet, or windy it might be!

Date:

Astronomy

Jan. 17, 2013 Rise Set
Actual Time 7:37 AM EST 5:14 PM EST
Civil Twilight 7:07 AM EST 5:44 PM EST
Nautical Twilight 6:33 AM EST 6:18 PM EST
Astronomical Twilight 6:00 AM EST 6:51 PM EST
Moon 10:39 AM EST (1/17) No Moon Set
Length of Visible Light 10h 36m
Length of Day
9h 36m
Waxing Crescent, 37% of the Moon is Illuminated
Jan 17
Waxing Crescent
Jan 18
First Quarter
Jan 26
Full
Feb 3
Last Quarter
Feb 10
New

Hourly Weather History & Observations

Time (EST) Temp. Windchill Dew Point Humidity Pressure Visibility Wind Dir Wind Speed Gust Speed Precip Events Conditions
12:46 AM 28.4 °F 17.0 °F 24.8 °F 86% 29.91 in 10.0 mi WSW 15.0 mph - N/A   Overcast
12:56 AM 28.0 °F 16.5 °F 24.1 °F 85% 29.98 in 9.0 mi WSW 15.0 mph 23.0 mph N/A   Overcast
1:56 AM 28.0 °F 15.3 °F 24.1 °F 85% 29.98 in 9.0 mi West 18.4 mph - N/A   Overcast
2:56 AM 28.0 °F 16.5 °F 24.1 °F 85% 29.99 in 7.0 mi West 15.0 mph - N/A   Overcast
3:56 AM 28.0 °F 17.0 °F 24.1 °F 85% 30.01 in 6.0 mi West 13.8 mph 21.9 mph N/A   Overcast
4:56 AM 28.0 °F 17.5 °F 24.1 °F 85% 30.03 in 6.0 mi West 12.7 mph - N/A   Overcast
5:56 AM 28.0 °F 18.6 °F 25.0 °F 88% 30.05 in 5.0 mi West 10.4 mph - N/A   Overcast
6:42 AM 28.4 °F 18.5 °F 24.8 °F 86% 30.00 in 5.0 mi WSW 11.5 mph - N/A   Overcast
7:56 AM 28.0 °F 18.6 °F 25.0 °F 88% 30.09 in 5.0 mi WSW 10.4 mph - N/A   Overcast
8:13 AM 28.4 °F 19.1 °F 24.8 °F 86% 30.03 in 4.0 mi West 10.4 mph - N/A   Overcast
8:54 AM 28.4 °F 21.2 °F 24.8 °F 86% 30.05 in 2.5 mi West 6.9 mph - N/A   Overcast
8:56 AM 28.0 °F 20.0 °F 25.0 °F 88% 30.12 in 2.5 mi WSW 8.1 mph - N/A   Overcast
9:09 AM 28.4 °F 20.4 °F 24.8 °F 86% 30.06 in 1.8 mi WSW 8.1 mph - N/A   Overcast
9:48 AM 28.4 °F 19.7 °F 24.8 °F 86% 30.08 in 3.0 mi WSW 9.2 mph - N/A   Overcast
9:56 AM 28.0 °F 18.6 °F 25.0 °F 88% 30.15 in 2.5 mi WSW 10.4 mph - N/A   Overcast
10:43 AM 28.4 °F 19.7 °F 26.6 °F 93% 30.08 in 2.0 mi West 9.2 mph - N/A   Overcast
10:56 AM 28.9 °F 21.1 °F 26.1 °F 89% 30.13 in 4.0 mi WSW 8.1 mph - N/A   Overcast
11:42 AM 28.4 °F 20.4 °F 26.6 °F 93% 30.05 in 4.0 mi WSW 8.1 mph - N/A   Overcast
11:56 AM 28.9 °F 19.8 °F 26.1 °F 89% 30.11 in 3.0 mi West 10.4 mph - N/A   Overcast
12:51 PM 30.2 °F 22.6 °F 24.8 °F 80% 30.02 in 7.0 mi West 8.1 mph - N/A   Overcast
12:56 PM 30.0 °F 23.2 °F 25.0 °F 82% 30.07 in 7.0 mi West 6.9 mph - N/A   Overcast
1:56 PM 30.0 °F 23.2 °F 24.1 °F 79% 30.08 in 10.0 mi West 6.9 mph - N/A   Overcast
2:04 PM 30.2 °F 23.4 °F 24.8 °F 80% 30.02 in 10.0 mi West 6.9 mph - N/A   Mostly Cloudy
2:56 PM 30.0 °F 22.4 °F 21.9 °F 72% 30.07 in 10.0 mi West 8.1 mph - N/A   Overcast
3:06 PM 30.2 °F 22.6 °F 23.0 °F 75% 30.01 in 10.0 mi West 8.1 mph - N/A   Overcast
3:56 PM 30.0 °F 23.2 °F 24.1 °F 79% 30.08 in 10.0 mi WSW 6.9 mph - N/A   Mostly Cloudy
4:27 PM 30.2 °F 22.6 °F 23.0 °F 75% 30.02 in 10.0 mi SW 8.1 mph - N/A   Overcast
4:56 PM 28.9 °F 21.1 °F 23.0 °F 78% 30.09 in 10.0 mi WSW 8.1 mph - N/A   Mostly Cloudy
5:56 PM 28.9 °F 21.9 °F 24.1 °F 82% 30.11 in 9.0 mi SW 6.9 mph - N/A   Clear
6:56 PM 28.0 °F 20.0 °F 24.1 °F 85% 30.11 in 8.0 mi WSW 8.1 mph - N/A   Scattered Clouds
7:43 PM 28.4 °F 21.2 °F 24.8 °F 86% 30.03 in 5.0 mi WSW 6.9 mph - N/A   Mostly Cloudy
7:56 PM 28.9 °F 21.1 °F 25.0 °F 85% 30.11 in 4.0 mi WSW 8.1 mph - N/A   Overcast
8:15 PM 28.4 °F 17.0 °F 24.8 °F 86% 30.06 in 5.0 mi WSW 15.0 mph - N/A   Overcast
8:23 PM 28.4 °F 17.5 °F 24.8 °F 86% 30.06 in 5.0 mi WSW 13.8 mph - N/A   Overcast
8:44 PM 28.4 °F 18.0 °F 24.8 °F 86% 30.05 in 4.0 mi West 12.7 mph - N/A   Overcast
8:53 PM 28.4 °F 20.4 °F 24.8 °F 86% 30.05 in 5.0 mi West 8.1 mph - N/A   Overcast
8:56 PM 28.9 °F 21.1 °F 25.0 °F 85% 30.11 in 6.0 mi West 8.1 mph - N/A   Overcast
9:56 PM 28.0 °F 18.6 °F 21.0 °F 75% 30.09 in 10.0 mi West 10.4 mph - N/A   Mostly Cloudy
10:56 PM 25.0 °F 16.3 °F 19.9 °F 81% 30.07 in 10.0 mi West 8.1 mph - N/A   Partly Cloudy
11:21 PM 26.6 °F 15.7 °F 21.2 °F 80% 30.00 in 10.0 mi West 12.7 mph - N/A   Overcast
11:33 PM 26.6 °F 15.7 °F 19.4 °F 74% 30.01 in 10.0 mi West 12.7 mph 21.9 mph N/A   Overcast
11:48 PM 26.6 °F 13.4 °F 21.2 °F 80% 30.03 in 0.5 mi WNW 18.4 mph 24.2 mph 0.00 in Snow Snow
11:56 PM 25.0 °F 13.6 °F 21.0 °F 85% 30.10 in 0.2 mi WNW 12.7 mph 24.2 mph 0.00 in Fog , Snow Light Snow